Weather History for KWMC - November, 2013

Change the Weather History Date:

Saturday, November 16, 2013

  Actual Average Record
Temperature  
Mean Temperature 44 °F 37 °F  
Max Temperature 52 °F 51 °F 69 °F (1949)
Min Temperature 35 °F 22 °F 1 °F (1886)
Degree Days  
Heating Degree Days 21 28  
Month to date heating degree days 363 410  
Since 1 July heating degree days 1145 1135  
Cooling Degree Days 0 0  
Month to date cooling degree days 0 0  
Year to date cooling degree days 762 541  
Moisture  
Dew Point 24 °F    
Average Humidity 48    
Maximum Humidity 64    
Minimum Humidity 32    
Precipitation  
Precipitation T in 0.03 in 0.77 in (1937)
Month to date precipitation 0.11 0.45  
Year to date precipitation 4.65 6.92  
Snow  
Snow 0.00 in 0.10 in 4.10 in (1955)
Month to date snowfall T 1.1  
Since 1 July snowfall 6.6 1.6  
Since 1 September snowfall 6.6 1.6  
Snow Depth 0.00 in    
Sea Level Pressure  
Sea Level Pressure 29.68 in    
Wind  
Wind Speed 13 mph (WSW)    
Max Wind Speed 28 mph    
Max Gust Speed 34 mph    
Visibility 10 miles    
Events Rain    
T = Trace of Precipitation, MM = Missing Value Source: NWS Daily Summary

Daily Weather History Graph

Daily Weather History Graph

Search for Another Location

Airport or City:

Trip Planner

Search our weather history database for the weather conditions in past years. The results will help you decide how hot, cold, wet, or windy it might be!

Date:

Astronomy

Nov. 16, 2013 Rise Set
Actual Time 6:40 AM PST 4:31 PM PST
Civil Twilight 6:10 AM PST 5:01 PM PST
Nautical Twilight 5:37 AM PST 5:34 PM PST
Astronomical Twilight 5:04 AM PST 6:07 PM PST
Moon 4:10 PM PST (11/16) 5:40 AM PST (11/16)
Length of Visible Light 10h 50m
Length of Day
9h 51m
Waxing Gibbous, 99% of the Moon is Illuminated
Nov 16
Waxing Gibbous
Nov 17
Full
Nov 25
Last Quarter
Dec 2
New
Dec 9
First Quarter

Hourly Weather History & Observations

Time (PST) Temp. Windchill Dew Point Humidity Pressure Visibility Wind Dir Wind Speed Gust Speed Precip Events Conditions
12:56 AM 37.9 °F 30.9 °F 25.0 °F 60% 29.62 in 10.0 mi South 10.4 mph - N/A   Overcast
1:56 AM 37.9 °F 30.5 °F 26.1 °F 62% 29.62 in 10.0 mi South 11.5 mph - N/A   Overcast
2:56 AM 39.9 °F 35.8 °F 24.1 °F 53% 29.61 in 10.0 mi Variable 5.8 mph - 0.00 in Rain Light Rain
3:56 AM 39.0 °F 34.0 °F 25.0 °F 57% 29.60 in 10.0 mi SW 6.9 mph - 0.00 in Rain Light Rain
4:56 AM 41.0 °F 35.2 °F 26.1 °F 55% 29.61 in 10.0 mi WSW 9.2 mph - 0.00 in   Overcast
5:56 AM 41.0 °F 33.5 °F 26.1 °F 55% 29.62 in 10.0 mi WSW 13.8 mph - N/A   Overcast
6:56 AM 41.0 °F 34.7 °F 25.0 °F 53% 29.63 in 10.0 mi West 10.4 mph - N/A   Overcast
7:56 AM 42.1 °F 37.7 °F 25.0 °F 51% 29.66 in 10.0 mi West 6.9 mph - N/A   Overcast
8:56 AM 44.1 °F 35.7 °F 23.0 °F 43% 29.68 in 10.0 mi West 20.7 mph 29.9 mph N/A   Overcast
9:56 AM 46.9 °F - 24.1 °F 41% 29.67 in 10.0 mi WSW 23.0 mph 29.9 mph N/A   Clear
10:56 AM 48.0 °F - 25.0 °F 41% 29.66 in 10.0 mi West 18.4 mph 26.5 mph N/A   Clear
11:56 AM 50.0 °F - 25.0 °F 38% 29.63 in 10.0 mi West 18.4 mph 28.8 mph N/A   Clear
12:56 PM 52.0 °F - 23.0 °F 32% 29.62 in 10.0 mi West 16.1 mph 28.8 mph N/A   Clear
1:56 PM 50.0 °F - 24.1 °F 36% 29.62 in 10.0 mi West 18.4 mph 27.6 mph N/A   Overcast
2:56 PM 48.9 °F - 23.0 °F 36% 29.62 in 10.0 mi WSW 18.4 mph 31.1 mph N/A   Partly Cloudy
3:56 PM 50.0 °F - 21.0 °F 32% 29.65 in 10.0 mi West 20.7 mph 31.1 mph N/A   Clear
4:56 PM 46.9 °F - 23.0 °F 39% 29.66 in 10.0 mi West 19.6 mph 26.5 mph N/A   Clear
5:56 PM 42.1 °F 39.2 °F 23.0 °F 47% 29.71 in 10.0 mi WNW 4.6 mph - N/A   Clear
6:56 PM 41.0 °F 35.8 °F 23.0 °F 49% 29.74 in 10.0 mi WSW 8.1 mph - N/A   Clear
7:56 PM 36.0 °F 30.3 °F 21.9 °F 57% 29.78 in 10.0 mi WSW 6.9 mph - N/A   Clear
8:56 PM 42.1 °F 36.6 °F 24.1 °F 49% 29.80 in 10.0 mi WSW 9.2 mph - N/A   Mostly Cloudy
9:56 PM 39.9 °F 33.4 °F 24.1 °F 53% 29.81 in 10.0 mi West 10.4 mph - N/A   Mostly Cloudy
10:56 PM 37.9 °F 30.5 °F 26.1 °F 62% 29.84 in 10.0 mi SW 11.5 mph - N/A   Overcast
11:56 PM 37.0 °F 31.6 °F 26.1 °F 65% 29.86 in 10.0 mi South 6.9 mph - N/A   Scattered Clouds